Date String (YYYY-MM-DD hh:mm:ss) UTC,Instrument flags,Ambient pressure (hPa),Sample flow (lpm),Bypass flow (lpm),Sample temperature (°C),Ambient temperature (°C),ASC tube jacket temperature (°C),LED temperature (°C),Box temperature (°C),Sample RH (%),Span deviation,Mass concentration (μg/m³),Mass concentration (μg/m³),Mass concentration (μg/m³)
DateTimeUTC,F1_M11,P_M11,Q1_M11,Q2_M11,T1_M11,T2_M11,T3_M11,T4_M11,T5_M11,U1_M11,ZSPAN_M11,X2_M11,X0_M11,X1_M11
2023-03-04 10:00:00,,0819.3,4.96,0.00,22.5,22.4,00.0,31.1,24.4,08.5,-001.0,0008.42,0012.62,0007.91
2023-03-04 10:01:00,,0819.4,4.99,0.00,22.6,22.9,00.0,31.2,24.5,07.8,-001.0,0008.33,0012.71,0007.76
2023-03-04 10:02:00,,0819.3,4.99,0.00,22.6,22.5,00.0,31.2,24.5,08.5,-000.8,0008.15,0012.54,0007.58
2023-03-04 10:03:00,,0819.2,5.00,0.00,22.6,22.1,00.0,31.2,24.4,09.8,-000.5,0008.07,0012.95,0007.53
2023-03-04 10:04:00,,0819.3,4.99,0.00,22.6,21.8,00.0,31.2,24.3,10.4,-000.4,0007.97,0012.95,0007.42
2023-03-04 10:05:00,,0819.3,5.00,0.00,22.6,21.5,00.0,31.2,24.2,10.5,-000.2,0007.86,0012.97,0007.28
2023-03-04 10:06:00,,0819.3,5.00,0.00,22.5,21.2,00.0,31.3,24.1,11.0,-000.3,0007.75,0012.89,0007.16
2023-03-04 10:07:00,,0819.3,5.00,0.00,22.5,21.0,00.0,31.2,24.1,09.9,-000.7,0007.63,0012.77,0007.03
2023-03-04 10:08:00,,0819.2,5.00,0.00,22.5,20.9,00.0,31.2,24.1,08.7,-000.8,0007.50,0012.69,0006.89
2023-03-04 10:09:00,,0819.2,5.03,0.00,22.4,20.8,00.0,31.2,24.0,07.9,-000.5,0007.45,0012.44,0006.87
2023-03-04 10:10:00,,0819.3,4.99,0.00,22.4,20.6,00.0,31.2,24.0,07.6,-000.7,0007.47,0012.09,0006.86
2023-03-04 10:11:00,,0819.2,5.01,0.00,22.4,20.5,00.0,31.2,24.0,07.4,-000.7,0007.49,0011.70,0006.86
2023-03-04 10:12:00,,0819.2,5.01,0.00,22.3,20.5,00.0,31.2,23.9,07.5,-000.8,0007.45,0011.51,0006.89
2023-03-04 10:13:00,,0819.3,5.00,0.00,22.3,21.0,00.0,31.2,24.0,07.5,-000.9,0007.41,0011.44,0006.87
2023-03-04 10:14:00,,0819.3,5.01,0.00,22.5,22.2,00.0,31.2,24.3,08.8,-000.8,0007.34,0010.80,0006.82
2023-03-04 10:15:00,,0819.4,4.98,0.00,22.6,23.1,00.0,31.2,24.6,08.2,-001.2,0007.25,0010.61,0006.74
2023-03-04 10:16:00,,0819.3,5.02,0.00,22.7,22.9,00.0,31.2,24.6,08.9,-001.7,0007.21,0010.58,0006.70
2023-03-04 10:17:00,,0819.4,5.00,0.00,22.7,22.5,00.0,31.3,24.5,08.3,-001.8,0007.11,0010.53,0006.57
2023-03-04 10:18:00,,0819.4,5.00,0.00,22.6,22.0,00.0,31.3,24.4,07.4,-001.8,0006.99,0010.50,0006.44
2023-03-04 10:19:00,,0819.3,5.00,0.00,22.6,21.7,00.0,31.3,24.3,07.2,-001.9,0006.95,0010.56,0006.38
2023-03-04 10:20:00,,0819.3,4.99,0.00,22.6,21.4,00.0,31.3,24.3,07.1,-002.1,0006.94,0010.61,0006.33
2023-03-04 10:21:00,,0819.4,5.00,0.00,22.6,21.2,00.0,31.3,24.3,07.1,-002.2,0006.97,0010.72,0006.31
2023-03-04 10:22:00,,0819.3,5.00,0.00,22.6,21.0,00.0,31.3,24.2,07.2,-002.3,0007.00,0010.83,0006.34
2023-03-04 10:23:00,,0819.4,4.99,0.00,22.5,20.8,00.0,31.3,24.1,07.1,-002.3,0007.04,0011.00,0006.35
2023-03-04 10:24:00,,0819.4,5.01,0.00,22.5,20.5,00.0,31.3,24.0,07.1,-002.3,0007.06,0011.03,0006.36
2023-03-04 10:25:00,,0819.4,4.99,0.00,22.4,20.4,00.0,31.2,24.0,07.0,-002.3,0007.06,0011.22,0006.30
2023-03-04 10:26:00,,0819.4,5.02,0.00,22.4,20.6,00.0,31.2,24.0,07.1,-002.0,0007.04,0011.29,0006.24
2023-03-04 10:27:00,,0819.4,5.00,0.00,22.5,21.8,00.0,31.2,24.2,07.6,-001.7,0006.93,0011.17,0006.14
2023-03-04 10:28:00,,0819.5,5.00,0.00,22.6,22.9,00.0,31.2,24.5,08.1,-001.9,0006.90,0011.12,0006.11
2023-03-04 10:29:00,,0819.4,5.00,0.00,22.7,23.1,00.0,31.3,24.6,08.3,-001.8,0006.94,0011.12,0006.17
2023-03-04 10:30:00,,0819.4,5.00,0.00,22.7,22.6,00.0,31.3,24.5,07.7,-001.6,0006.96,0011.53,0006.21
2023-03-04 10:31:00,,0819.4,4.98,0.00,22.7,22.2,00.0,31.3,24.4,07.4,-001.5,0006.99,0011.62,0006.23
2023-03-04 10:32:00,,0819.5,5.00,0.00,22.7,21.9,00.0,31.3,24.4,08.1,-000.8,0007.01,0011.59,0006.30
2023-03-04 10:33:00,,0819.5,5.00,0.00,22.6,21.6,00.0,31.3,24.3,08.0,-000.6,0007.04,0011.56,0006.34
2023-03-04 10:34:00,,0819.4,5.00,0.00,22.6,21.4,00.0,31.3,24.3,08.0,-000.7,0007.06,0011.46,0006.36
2023-03-04 10:35:00,,0819.5,5.00,0.00,22.6,21.1,00.0,31.3,24.2,07.3,-001.1,0007.10,0011.61,0006.37
2023-03-04 10:36:00,,0819.5,5.00,0.00,22.5,21.0,00.0,31.3,24.1,07.1,-001.0,0007.07,0011.50,0006.36
2023-03-04 10:37:00,,0819.5,4.99,0.00,22.5,20.8,00.0,31.3,24.1,07.1,-001.2,0007.03,0011.43,0006.33
2023-03-04 10:38:00,,0819.5,5.01,0.00,22.5,20.7,00.0,31.3,24.0,07.1,-001.3,0007.06,0011.52,0006.32
2023-03-04 10:39:00,,0819.5,5.00,0.00,22.5,20.7,00.0,31.3,24.1,07.2,-000.8,0007.02,0011.46,0006.30
2023-03-04 10:40:00,,0819.6,5.01,0.00,22.4,20.6,00.0,31.3,24.0,07.1,-000.7,0007.00,0011.51,0006.23
2023-03-04 10:41:00,,0819.6,5.00,0.00,22.5,21.4,00.0,31.2,24.2,07.0,-000.7,0006.94,0011.34,0006.15
2023-03-04 10:42:00,,0819.6,4.99,0.00,22.6,22.6,00.0,31.2,24.4,09.7,-000.6,0007.05,0011.13,0006.24
2023-03-04 10:43:00,,0819.6,4.98,0.00,22.7,23.3,00.0,31.3,24.6,12.4,-000.8,0007.29,0011.16,0006.54
2023-03-04 10:44:00,,0819.7,4.99,0.00,22.7,22.9,00.0,31.3,24.6,13.6,-000.8,0007.62,0011.33,0006.90
2023-03-04 10:45:00,,0819.6,4.99,0.00,22.7,22.4,00.0,31.3,24.5,14.2,-000.6,0007.96,0011.49,0007.28
2023-03-04 10:46:00,,0819.8,4.99,0.00,22.7,21.9,00.0,31.3,24.4,14.4,-000.4,0008.28,0011.62,0007.65
2023-03-04 10:47:00,,0819.7,5.00,0.00,22.7,21.6,00.0,31.3,24.3,14.6,-000.6,0008.68,0011.82,0008.10
2023-03-04 10:48:00,,0819.8,5.01,0.00,22.6,21.3,00.0,31.3,24.2,14.5,-000.5,0009.05,0012.05,0008.52
2023-03-04 10:49:00,,0819.9,5.02,0.00,22.6,21.1,00.0,31.3,24.2,14.6,-000.7,0009.43,0012.23,0008.96
2023-03-04 10:50:00,,0819.9,5.02,0.00,22.6,21.0,00.0,31.3,24.2,14.7,-001.0,0009.84,0012.48,0009.41
2023-03-04 10:51:00,,0819.9,5.00,0.00,22.5,20.9,00.0,31.3,24.2,14.7,-001.1,0010.22,0012.62,0009.87
2023-03-04 10:52:00,,0819.8,4.99,0.00,22.5,20.8,00.0,31.3,24.2,14.7,-001.1,0010.65,0012.89,0010.33
2023-03-04 10:53:00,,0819.8,4.99,0.00,22.5,20.7,00.0,31.3,24.1,14.7,-001.2,0010.97,0013.11,0010.66
2023-03-04 10:54:00,,0819.8,5.01,0.00,22.5,21.1,00.0,31.3,24.2,14.5,-000.9,0011.05,0013.20,0010.73
2023-03-04 10:55:00,,0819.8,4.99,0.00,22.6,22.2,00.0,31.3,24.4,14.5,-001.0,0011.05,0013.27,0010.73
2023-03-04 10:56:00,,0819.9,4.98,0.00,22.7,23.2,00.0,31.3,24.6,14.5,-001.2,0010.99,0013.18,0010.68
2023-03-04 10:57:00,,0819.9,4.99,0.00,22.7,23.0,00.0,31.3,24.6,14.5,-001.1,0010.81,0012.92,0010.52
2023-03-04 10:58:00,,0819.9,5.00,0.00,22.7,22.5,00.0,31.4,24.6,14.7,-000.9,0010.60,0012.67,0010.32
2023-03-04 10:59:00,,0820.0,5.01,0.00,22.7,22.1,00.0,31.4,24.5,14.8,-000.9,0010.47,0012.46,0010.21
